KD4NH Weather Reports


time (UTC)temp
C
wind
direction
speed
KPH
gust
KPH
rain 1hr
cm
rain 24hr
cm
rain mn
cm
humidity
%
barometer
mb
20260505053521 15 243 3.2 12.9 0.00 0.00 0.00 60 1012.1
20260505053038 15 225 3.2 9.7 0.00 0.00 0.00 59 1012.3
20260505052544 15 223 3.2 9.7 0.00 0.00 0.00 60 1012.3
20260505052002 15 221 0.0 9.7 0.00 0.00 0.00 61 1012.3
20260505051514 15 227 4.8 9.7 0.00 0.00 0.00 61 1012.3
20260505051027 15 180 1.6 14.5 0.00 0.00 0.00 62 1012.2
20260505050535 15 228 1.6 14.5 0.00 0.00 0.00 61 1012.1
20260505041555 14 166 0.0 0.0 0.00 0.00 0.00 65 1012.1
20260505041008 14 135 0.0 0.0 0.00 0.00 0.00 64 1012.1
20260505040526 14 135 0.0 0.0 0.00 0.00 0.00 64 1012.2
20260505040034 13 135 0.0 3.2 0.00 0.00 0.00 64 1012.2
20260505035539 13 135 0.0 3.2 0.00 0.00 0.00 64 1012.2
20260505035002 13 133 0.0 4.8 0.00 0.00 0.00 64 1012.2
20260505034512 13 128 0.0 4.8 0.00 0.00 0.00 66 1012.3
20260505034027 13 161 1.6 4.8 0.00 0.00 0.00 68 1012.3
20260505033538 13 144 0.0 4.8 0.00 0.00 0.00 66 1012.3
20260505033052 13 197 0.0 0.0 0.00 0.00 0.00 66 1012.4
20260505032506 13 55 0.0 0.0 0.00 0.00 0.00 65 1012.5
20260505032023 13 199 0.0 0.0 0.00 0.00 0.00 65 1012.6
20260505031532 13 199 0.0 0.0 0.00 0.00 0.00 64 1012.6
20260505031048 13 199 0.0 0.0 0.00 0.00 0.00 65 1012.6
20260505030600 13 199 0.0 0.0 0.00 0.00 0.00 65 1012.6
20260505030016 13 198 0.0 0.0 0.00 0.00 0.00 64 1012.5
20260505025528 13 198 0.0 0.0 0.00 0.00 0.00 65 1012.6
20260505025043 14 198 0.0 0.0 0.00 0.00 0.00 64 1012.6
20260505024601 14 198 0.0 0.0 0.00 0.00 0.00 63 1012.6
20260505024015 14 198 0.0 0.0 0.00 0.00 0.00 63 1012.7
20260505023525 15 198 0.0 4.8 0.00 0.00 0.00 63 1012.6
20260505023040 15 198 0.0 4.8 0.00 0.00 0.00 61 1012.6
20260505022550 15 198 0.0 4.8 0.00 0.00 0.00 62 1012.6
20260505022008 15 209 0.0 0.0 0.00 0.00 0.00 63 1012.6
20260505021526 15 209 0.0 0.0 0.00 0.00 0.00 62 1012.6
20260505021035 15 209 0.0 0.0 0.00 0.00 0.00 62 1012.5
20260505020552 16 209 0.0 0.0 0.00 0.00 0.00 62 1012.5
20260505020004 16 209 0.0 3.2 0.00 0.00 0.00 59 1012.5
20260505015520 16 209 0.0 6.4 0.00 0.00 0.00 59 1012.5
20260505015034 17 207 0.0 6.4 0.00 0.00 0.00 56 1012.5
20260505014603 17 172 0.0 6.4 0.00 0.00 0.00 54 1012.4
20260505014007 17 196 3.2 8.0 0.00 0.00 0.00 48 1012.3
20260505013520 17 142 3.2 8.0 0.00 0.00 0.00 51 1012.3
20260505013037 17 186 1.6 4.8 0.00 0.00 0.00 53 1012.3
20260505012544 17 194 0.0 4.8 0.00 0.00 0.00 52 1012.3
20260505012054 17 200 1.6 4.8 0.00 0.00 0.00 55 1012.2
20260505011510 17 190 1.6 6.4 0.00 0.00 0.00 54 1012.3
20260505011021 17 191 3.2 6.4 0.00 0.00 0.00 57 1012.3
20260505010537 17 202 1.6 6.4 0.00 0.00 0.00 59 1012.2
20260505010055 17 202 3.2 8.0 0.00 0.00 0.00 62 1012.2
20260505005508 17 197 4.8 8.0 0.00 0.00 0.00 57 1012.0
20260505005018 17 224 3.2 6.4 0.00 0.00 0.00 60 1012.0
20260505004544 17 224 3.2 6.4 0.00 0.00 0.00 65 1011.9
20260505004041 17 224 1.6 4.8 0.00 0.00 0.00 68 1011.8
20260505003555 17 224 3.2 6.4 0.00 0.00 0.00 68 1011.7
20260505003018 17 223 3.2 6.4 0.00 0.00 0.00 67 1011.7
20260505002524 17 233 0.0 3.2 0.00 0.00 0.00 67 1011.7
20260505002040 17 233 0.0 0.0 0.00 0.00 0.00 66 1011.6
20260505001546 18 233 0.0 0.0 0.00 0.00 0.00 66 1011.6
20260505001008 18 232 0.0 0.0 0.00 0.00 0.00 61 1011.6
20260505000514 18 233 0.0 0.0 0.00 0.00 0.00 63 1011.6
20260505000033 19 233 0.0 0.0 0.00 0.00 0.00 63 1011.6
20260504235539 19 233 0.0 0.0 0.00 0.00 0.00 62 1011.5
20260504235054 20 232 0.0 0.0 0.00 0.00 0.00 60 1011.5
20260504234506 20 232 0.0 4.8 0.00 0.00 0.00 57 1011.5
20260504234021 20 230 1.6 4.8 0.00 0.00 0.00 55 1011.4
20260504233531 20 230 1.6 3.2 0.00 0.00 0.00 56 1011.4
20260504233047 21 230 0.0 4.8 0.00 0.00 0.00 54 1011.4
20260504232559 21 261 0.0 11.3 0.00 0.00 0.00 51 1011.4
20260504232015 21 313 1.6 8.0 0.00 0.00 0.00 50 1011.3
20260504231527 21 266 4.8 8.0 0.00 0.00 0.00 50 1011.2
20260504231041 21 291 0.0 6.4 0.00 0.00 0.00 50 1011.2
20260504230557 21 234 1.6 6.4 0.00 0.00 0.00 52 1011.2
20260504230010 21 49 4.8 6.4 0.00 0.00 0.00 48 1011.2
20260504225523 21 15 3.2 9.7 0.00 0.00 0.00 48 1011.2
20260504225035 21 319 4.8 9.7 0.00 0.00 0.00 49 1011.3
20260504224545 21 233 1.6 17.7 0.00 0.00 0.00 50 1011.2
20260504224004 21 12 8.0 14.5 0.00 0.00 0.00 48 1011.2
20260504223522 21 360 8.0 14.5 0.00 0.00 0.00 49 1011.2
20260504223041 21 340 6.4 14.5 0.00 0.00 0.00 48 1011.2
20260504222548 21 21 4.8 9.7 0.00 0.00 0.00 49 1011.3
20260504222059 21 342 4.8 9.7 0.00 0.00 0.00 48 1011.4
20260504222001 21 350 3.2 9.7 0.00 0.00 0.00 49 1011.3
20260504221520 21 278 3.2 12.9 0.00 0.00 0.00 49 1011.4
20260504221029 21 328 4.8 12.9 0.00 0.00 0.00 49 1011.4
20260504220547 21 350 8.0 16.1 0.00 0.00 0.00 49 1011.4
20260504220003 21 24 8.0 14.5 0.00 0.00 0.00 49 1011.3
20260504215516 21 360 8.0 14.5 0.00 0.00 0.00 49 1011.4
20260504215031 21 311 4.8 16.1 0.00 0.00 0.00 50 1011.4
20260504214541 22 333 8.0 16.1 0.00 0.00 0.00 48 1011.3
20260504214055 22 307 8.0 12.9 0.00 0.00 0.00 50 1011.4
20260504213509 22 355 3.2 12.9 0.00 0.00 0.00 49 1011.5
20260504213026 22 321 8.0 12.9 0.00 0.00 0.00 49 1011.4
20260504212540 22 106 1.6 9.7 0.00 0.00 0.00 49 1011.4
20260504212050 22 339 4.8 14.5 0.00 0.00 0.00 48 1011.4
20260504211520 22 273 4.8 14.5 0.00 0.00 0.00 51 1011.5
20260504211017 22 340 6.4 14.5 0.00 0.00 0.00 48 1011.5
20260504210533 22 304 3.2 9.7 0.00 0.00 0.00 49 1011.6
20260504210046 22 255 1.6 17.7 0.00 0.00 0.00 50 1011.7
20260504205558 22 336 9.7 20.9 0.00 0.00 0.00 48 1011.9
20260504205015 22 269 14.5 20.9 0.00 0.00 0.00 47 1011.9
20260504204525 22 5 1.6 8.0 0.00 0.00 0.00 50 1011.9
20260504204041 22 200 3.2 16.1 0.00 0.00 0.00 49 1011.9
20260504203549 22 342 1.6 16.1 0.00 0.00 0.00 50 1011.9
20260504203005 22 38 3.2 12.9 0.00 0.00 0.00 50 1011.9
20260504202516 22 314 6.4 16.1 0.00 0.00 0.00 49 1012.0
20260504202029 22 80 4.8 16.1 0.00 0.00 0.00 46 1012.1
20260504201540 22 288 1.6 12.9 0.00 0.00 0.00 50 1012.2
20260504201053 22 360 3.2 12.9 0.00 0.00 0.00 48 1012.3
20260504200505 22 250 3.2 12.9 0.00 0.00 0.00 50 1012.4
20260504200022 22 237 3.2 12.9 0.00 0.00 0.00 52 1012.5
20260504195531 22 213 1.6 16.1 0.00 0.00 0.00 50 1012.6
20260504195043 21 182 4.8 16.1 0.00 0.00 0.00 53 1012.7
20260504194556 22 41 8.0 19.3 0.00 0.00 0.00 52 1012.8
20260504194013 21 300 6.4 19.3 0.00 0.00 0.00 53 1012.9
20260504193524 22 5 6.4 25.7 0.00 0.00 0.00 49 1012.9
20260504193039 22 49 8.0 25.7 0.00 0.00 0.00 48 1013.0
20260504192549 22 290 1.6 12.9 0.00 0.00 0.00 47 1013.2
20260504192007 22 294 3.2 8.0 0.00 0.00 0.00 49 1013.3
20260504191517 22 9 0.0 16.1 0.00 0.00 0.00 49 1013.3
20260504191031 22 237 4.8 16.1 0.00 0.00 0.00 48 1013.5
20260504190544 22 226 4.8 12.9 0.00 0.00 0.00 50 1013.7
20260504190109 22 227 3.2 11.3 0.00 0.00 0.00 51 1013.7
20260504190002 22 249 4.8 11.3 0.00 0.00 0.00 47 1013.7
20260504185519 22 5 3.2 11.3 0.00 0.00 0.00 49 1013.7
20260504185029 22 234 4.8 12.9 0.00 0.00 0.00 48 1013.9
20260504184552 22 282 6.4 12.9 0.00 0.00 0.00 50 1014.1
20260504184055 22 249 6.4 19.3 0.00 0.00 0.00 48 1014.1
20260504183511 22 218 11.3 19.3 0.00 0.00 0.00 46 1014.2
20260504183023 22 277 3.2 12.9 0.00 0.00 0.00 48 1014.3
20260504182540 22 305 4.8 12.9 0.00 0.00 0.00 48 1014.3
20260504182049 22 271 3.2 14.5 0.00 0.00 0.00 51 1014.4
20260504181506 22 217 3.2 11.3 0.00 0.00 0.00 48 1014.5
20260504181015 22 221 4.8 14.5 0.00 0.00 0.00 50 1014.5
20260504180530 21 207 6.4 17.7 0.00 0.00 0.00 50 1014.5
20260504180039 21 263 12.9 17.7 0.00 0.00 0.00 50 1014.6
20260504175554 21 225 1.6 14.5 0.00 0.00 0.00 48 1014.7
20260504175007 21 267 0.0 12.9 0.00 0.00 0.00 53 1014.7
20260504174519 20 315 1.6 14.5 0.00 0.00 0.00 48 1014.7
20260504174033 20 271 3.2 14.5 0.00 0.00 0.00 53 1014.8
20260504173548 20 51 4.8 9.7 0.00 0.00 0.00 47 1014.7
20260504173058 20 56 6.4 12.9 0.00 0.00 0.00 51 1014.8
20260504172513 19 19 3.2 20.9 0.00 0.00 0.00 48 1014.9
20260504172025 20 25 8.0 20.9 0.00 0.00 0.00 48 1015.0
20260504171541 20 355 1.6 12.9 0.00 0.00 0.00 48 1015.0
20260504171049 20 200 1.6 11.3 0.00 0.00 0.00 49 1015.1
20260504170505 20 232 3.2 11.3 0.00 0.00 0.00 48 1015.2
20260504151059 17 232 1.6 16.1 0.00 0.00 0.00 59 1017.3
20260504150513 17 336 9.7 16.1 0.00 0.00 0.00 53 1017.3
20260504141029 15 355 3.2 14.5 0.00 0.00 0.00 58 1018.1
20260504140543 15 33 6.4 14.5 0.00 0.00 0.00 60 1017.9
20260504130513 10 47 1.6 6.4 0.00 0.00 0.00 77 1017.4
20260504110529 2 209 0.0 0.0 0.00 0.00 0.00 92 1016.5
20260504100600 2 209 1.6 4.8 0.00 0.00 0.00 91 1016.8
20260504100504 2 209 0.0 4.8 0.00 0.00 0.00 90 1016.9
20260504081506 2 269 0.0 0.0 0.00 0.00 0.00 87 1017.4
20260504081024 3 269 0.0 0.0 0.00 0.00 0.00 87 1017.4
20260504080532 3 269 0.0 0.0 0.00 0.00 0.00 88 1017.2